Regional Weather Roundup
Issued by NWS Pendleton, OR

Home | Current Version | Previous Version | Text Only | Print | Product List | Glossary On
Versions: 1 2 3 4 5 6 7 8 9 10 11 12 13 14 15 16 17 18 19 20 21 22 23 24 25 26 27 28 29 30 31 32 33 34 35 36 37 38 39 40 41 42 43 44 45 46 47 48 49 50
000
ASUS46 KPDT 232225
RWRPDT
PENDLETON REGIONAL WEATHER ROUNDUP
NATIONAL WEATHER SERVICE PENDLETON OREGON
300 PM PDT TUE SEP 23 2014

NOTE: FAIR INDICATES FEW OR NO CLOUDS BELOW 12,000 FEET WITH NO
SIGNIFICANT WEATHER AND/OR OBSTRUCTIONS TO VISIBILITY.

# INDICATES UNOFFICIAL STATION AND DATA

WAZ520-232310-
EAST SLOPES OF WASHINGTON CASCADES

CITY            SKY/WX      TMP DP  RH  WIND    PRES   REMARKS
#BUMPING DAM    N/A         58  N/A N/A CALM    N/A
#CLE ELUM HS    N/A         62  50  65  CALM    29.84F
#CLE ELUM 2NW   N/A         63  48  58  S1      N/A
#CLE ELUM LAKE  N/A         61  54  78  CALM    29.77S
#CLIFFDEL 2NW   N/A         64  50  60  CALM    N/A
#GLENWOOD       N/A         67  58  73  CALM    29.80F
#MANASTASH CYN  N/A         64  50  60  CALM    29.87F
#NELSON         N/A         61  55  81  CALM    29.82S
#NELSON 3SW     N/A         61  54  78  CALM    29.99F
#NILE           N/A         66  55  68  CALM    29.08F
#SNOWDEN        N/A         69  39  33  W2      N/A
#TEANAWAY 4NE   N/A         63  55  75  CALM    N/A
#TROUT LAKE 1NE N/A         67  56  68  CALM    29.80S
$$

WAZ521-232310-
SIMCOE HIGHLANDS

CITY            SKY/WX      TMP DP  RH  WIND    PRES   REMARKS
#CENTERVILLE 4W N/A         72  51  48  SE2     29.62F
#CENTERVILLE 1SWN/A         70  50  49  CALM    29.78R
#GOLDENDALE     N/A         72  49  44  W1      N/A
#GOLDENDALE 1NE N/A         71  42  35  CALM    N/A
#GOLDENDALE 1S  N/A         72  53  51  SW2     29.84S
#GOLDENDALE 5WNWN/A         70  53  55  S1      29.77F
#GOODNOE HILLS  N/A         74  53  48  NW10    29.76F
#LYLE 6NE       N/A         65  53  65  NE1     29.78S
$$

WAZ026-232310-
KITTITAS VALLEY

CITY            SKY/WX      TMP DP  RH  WIND    PRES   REMARKS
ELLENSBURG AP   CLOUDY      70  52  53  CALM    29.86S
#ELLENSBURG CWU N/A         67  53  61  CALM    29.77F
#ELLENSBURG 3NE N/A         65  55  70  CALM    29.87F
#ELLENSBURG     N/A         71  56  59  N1      N/A
#KITTITAS 3S    N/A         65  56  73  CALM    29.78F
#THORP 6N       N/A         64  51  63  CALM    29.82S
$$

WAZ027-232310-
YAKIMA VALLEY

CITY            SKY/WX      TMP DP  RH  WIND    PRES   REMARKS
SUNNYSIDE AP    CLOUDY      73  55  53  CALM    29.82S
YAKIMA AIRPORT  PTCLDY      73  52  48  CALM    29.83F
YAKIMA-VAGABOND MOCLDY      72  51  48  W5      29.85F
#COWICHE 1N     N/A         69  54  59  CALM    30.02F
#DONALD 2NE     N/A         73  55  53  CALM    30.16S
#GRANDVIEW      N/A         76  53  45  CALM    29.79F
#MABTON         N/A         75  56  52  CALM    29.81F
#MOXEE 2E       N/A         70  41  35  S3      29.77S
#NACHES 2SW     N/A         70  54  57  CALM    29.88F
#OUTLOOK DOT    N/A         N/A N/A N/A CALM    N/A
#SELAH 8E       N/A         71  47  42  W2      N/A
#TERRACE HTS    N/A         71  54  55  CALM    29.75F
#TOPPENISH      N/A         73  54  51  SE1     29.71F
#WAPATO 4NE     N/A         73  55  53  CALM    30.16S
#WEST VALLEY    N/A         71  55  57  CALM    29.77F
#W YAKIMA       N/A         71  54  55  CALM    29.78F
#WHITE SWAN 5E  N/A         73  53  49  E1      29.79F
#WILEY CITY 3W  N/A         70  48  46  CALM    29.85R
$$

WAZ028-232310-
LOWER COLUMBIA BASIN...WASHINGTON

CITY            SKY/WX      TMP DP  RH  WIND    PRES   REMARKS
HANFORD         CLOUDY      77  53  43  N2      29.81F
PASCO           CLOUDY      79  57  47  N3      29.81F
PROSSER AWOS    N/A         79  54  42  N5      29.83F
RICHLAND AWOS   CLOUDY      79  48  34  CALM    29.80F
#BASIN CITY 5SW N/A         73  64  73  CALM    29.81F
#BENTON CITY    N/A         76  53  45  NE1     29.68F
#CONNELL 5N     N/A         76  52  43  SW5     29.79F
#CONNELL 5NW    N/A         75  52  45  CALM    29.74F
#ELTOPIA        N/A         78  58  50  CALM    29.75F
#ELTOPIA 6NW    N/A         75  58  56  CALM    28.79F
#KENNEWICK 3S   N/A         76  61  60  CALM    29.78F
#PASCO-BROADMOORN/A         80  57  45  E1      29.67F
#PATERSON       N/A         78  54  43  CALM    29.76F
#PROSSER        N/A         79  49  35  CALM    29.77F
#SAGEMOOR 2W    N/A         76  59  56  CALM    29.65F
#TOUCHET 2S     N/A         81  58  46  N3      29.76F
#WEST PASCO     N/A         79  58  49  CALM    29.78F
$$

WAZ029-232310-
FOOTHILLS OF THE BLUES...WASHINGTON

CITY            SKY/WX      TMP DP  RH  WIND    PRES   REMARKS
WALLA WALLA AP  CLOUDY      81  54  39  W6      29.85S
#DAYTON SCHOOL  N/A         80  51  36  SW1     29.85S
#LOWDEN 2SE     N/A         81  60  49  NW2     29.77F
#PLEASANT VIEW 1N/A         78  53  42  S8      29.82F
#PRESCOTT       N/A         81  58  46  CALM    29.77F
#SUDBURY        N/A         83  N/A N/A W2      N/A
#WHITMAN COLLEGEN/A         80  56  44  W5      29.83F
#WAITSBURG 8N   N/A         79  38  23  S5      29.79S
#WALLA WALLA 5E N/A         68  59  73  W7      N/A
#WALLA WALLA U  N/A         82  58  44  CALM    29.78F
#WHITMAN MISSIONN/A         80  60  51  CALM    29.80S
$$

WAZ030-232310-
BLUE MOUNTAINS...WASHINGTON

CITY            SKY/WX      TMP DP  RH  WIND    PRES   REMARKS
$$

ORZ009-041-WAZ024-232310-
COLUMBIA RIVER GORGE

CITY            SKY/WX      TMP DP  RH  WIND    PRES   REMARKS
HOOD RIVER AP   LGT RAIN    68  54  61  E3      29.84S
THE DALLES AP   MOCLDY      71  52  51  NW6     29.81F
#ARLINGTON AIRPON/A         77  51  40  W6      29.95S
#ARLINGTON HS   N/A         80  48  33  N6      29.67F
#MARYHILL 2W    N/A         71  57  61  CALM    N/A
#MOSIER 1S      N/A         67  47  49  CALM    29.85S
#MURDOCK        N/A         70  57  63  W7      29.82S
#RUFUS DOT      N/A         70  58  66  NW10    N/A

$$

ORZ510-232310-
NORTH CENTRAL OREGON

CITY            SKY/WX      TMP DP  RH  WIND    PRES   REMARKS
#CHENOWITH 1W   N/A         66  52  61  W5      N/A
#COW CYN RST AREN/A         74  47  38  SW7     N/A
#DUFUR 9E       N/A         66  50  56  CALM    29.82F
#GRASS VALLEY   N/A         71  47  42  CALM    N/A
#GRASS VALLEY 1SN/A         72  49  44  NW1     29.80F
#KENT DOT       N/A         75  47  37  W7      N/A
#MAUPIN SCHOOL  N/A         76  51  42  CALM    28.69F
#MORO SCHOOL    N/A         72  54  53  N6      29.86F
#SHANIKO 5WSW   N/A         73  45  37  S13     N/A
#SHANIKO 4NW    N/A         72  44  37  SW5     29.91F
#TYGH VALLEY 2NEN/A         73  52  48  SW2     29.76F
#WAPANITIA AIRPON/A         74  49  41  N1      29.78F
#WASCO DOT      N/A         73  53  49  NW7     N/A
#WASCO 5NE      N/A         71  52  51  NW6     29.78F
$$

ORZ511-232310-
CENTRAL OREGON

CITY            SKY/WX      TMP DP  RH  WIND    PRES   REMARKS
BEND AIRPORT    CLOUDY      75  43  32  S17     29.92F
MADRAS AIRPORT  MOCLDY      79  46  31  S13     29.87F
REDMOND AIRPORT PTCLDY      77  43  30  SW15    29.88F
#BEND 6E        N/A         75  40  28  CALM    29.69F
#BEND 1SW       N/A         75  45  34  SE10    N/A
#BEND-AWBREY    N/A         75  47  37  N3      29.75F
#BEND-KIM LN    N/A         75  51  43  S5      29.88F
#CROOKED RVR RANN/A         78  50  38  SW3     29.72F
#CULVER         N/A         77  49  37  SE7     29.82F
#LAKE BILLY CHINN/A         78   9   7  S6      29.87F
#POWELL BUTTE 3EN/A         76  45  33  S8      N/A
#POWELL BUTTE   N/A         76  47  36  SW3     29.56F
#PRINEVILLE 3N  N/A         73  52  48  E13     29.72F


ORZ509-232310-
EAST SLOPES OF OREGON CASCADES

CITY            SKY/WX      TMP DP  RH  WIND    PRES   REMARKS
#BLUE BOX PASS  N/A         63   9  12  SW7     N/A
#CAMP SHERMAN   N/A         77  47  35  CALM    29.75F
#LA PINE DOT    N/A         71  36  28  S12     N/A
#LA PINE 4NW    N/A         70  46  42  S5      29.83F
#LAVA BUTTE DOT N/A         70  41  35  SE3     N/A
#SISTERS AIRPOR N/A         75  55  50  VRB5    29.91S
#SISTERS ODOT   N/A         76  N/A N/A E1      N/A
#SISTERS 3N     N/A         75  50  41  CALM    N/A
#SUNRIVER       N/A         70  46  42  S3      29.67F
#SUNRIVER AP    N/A         69  46  44  SW7     29.74F
#SUTTLE LK DOT  N/A         66  49  54  S6      N/A
#TUMALO 3W      N/A         75  48  38  S7      29.63F
#WANOGA BUTTE D N/A         60  44  55  SW12    N/A

$$

ORZ044-232310-
LOWER COLUMBIA BASIN...OREGON

CITY            SKY/WX      TMP DP  RH  WIND    PRES   REMARKS
HERMISTON       CLOUDY      78  55  45  E6      29.80F
#BOARDMAN SCHOOLN/A         60  53  78  CALM    29.78F
#BOARDMAN 3W    N/A         77  58  52  SE3     29.50S
#BOARDMAN 8SW   N/A         80  57  45  W5      29.77F
#ECHO 8SW       N/A         78  54  43  N1      29.78F
#IONE SCHOOL    N/A         79  53  41  NW1     29.81F
#IRRIGON 4NW    N/A         78  53  42  N2      N/A
#UMATILLA       N/A         81  54  39  CALM    29.77F
$$

ORZ507-232310-
NORTHERN FOOTHILLS OF THE BLUES

CITY            SKY/WX      TMP DP  RH  WIND    PRES   REMARKS
PENDLETON AIRPT CLOUDY      78  54  43  N10     29.84F
#ADAMS 3WNW     N/A         78  58  50  N5      29.77F
#ATHENA         N/A         79  61  54  NE3     29.80F
#HELIX SCHOOL   N/A         77  55  47  CALM    29.78F
#HELIX 3N       N/A         77  57  50  N7      29.84F
#HELIX 6SW      N/A         77  56  48  CALM    29.85F
#HOLDMAN 5SE    N/A         78  55  45  CALM    29.85F
#HOLDMAN 6E     N/A         76  53  45  E5      29.61F
#M-F GROVE ELEM N/A         78  60  54  CALM    29.83S
#M-FREEWATER 5SEN/A         78  65  64  CALM    29.84F
#PENDLETON DNTN N/A         78  54  43  N3      29.85S
#PDT AQUATIC CTRN/A         79  60  52  N2      29.82F
#PENDLETON 5NE  N/A         79  58  49  N5      29.80F
#PDT SUNRIDGE   N/A         79  57  47  W1      29.83F
#PENDLETON 7NW  N/A         76  58  54  CALM    25.35F
#PILOT ROCK     N/A         79  53  41  NW2     29.87S
#TUTUILLA       N/A         78  57  48  N2      29.80F
#UMAPINE 2E     N/A         79  63  58  CALM    29.79F

$$

ORZ508-232310-
SOUTHERN FOOTHILLS OF THE BLUES

CITY            SKY/WX      TMP DP  RH  WIND    PRES   REMARKS
LEXINGTON       CLOUDY      81  52  37  N8      29.85F
#AJAX           N/A         77  45  32  N5      29.81F
#CONDON SCHOOL  N/A         76  50  40  CALM    29.86F
#CONDON 5W      N/A         73  49  43  SW2     29.90F
#FOSSIL SCHOOL  N/A         77  49  37  SW5     29.86F
#HEPPNER 4NE    N/A         74  52  46  N2      29.76F
#LEXINGTON 2SE  N/A         81  55  41  N8      29.78F
#MIKKALO        N/A         77  46  33  N6      29.85F
#OLEX 4N        N/A         77  51  40  CALM    29.81F
#RUGGS 5NE      N/A         78  52  40  W6      30.07R
#RUGGS 2SW      N/A         80  48  33  SW7     29.77F

$$

ORZ502-503-232310-
BLUE MOUNTAINS

CITY            SKY/WX      TMP DP  RH  WIND    PRES   REMARKS
MEACHAM         CLOUDY      77  47  35  MISG    29.96F
#BATTLE MTN DOT N/A         71  49  46  SW6     N/A
#HARDMAN 10S    N/A         71  47  42  E1      30.03F
#HEPPNER 15SE   N/A         73  48  41  S2      29.88F
#LADD CYN SMT   N/A         74  43  33  SE14    N/A
#LADD CREEK ODOTN/A         78  52  40  S3      N/A
#N POWDER DOT   N/A         78  49  36  S15     N/A
#PIKES PEAK     N/A         70  53  55  CALM    27.99S
#TOLLGATE       N/A         65  53  65  CALM    29.97S
#TROY SCHOOL    N/A         79  62  56  CALM    29.65F
#UKIAH          N/A         77  48  36  SE1     29.82F
#WESTON 4E      N/A         74  52  46  S1      29.75S
$$

ORZ505-232310-
JOHN DAY BASIN

CITY            SKY/WX      TMP DP  RH  WIND    PRES   REMARKS
JOHN DAY        CLOUDY      78  40  26  S9      29.96F
#JOHN DAY KJDY  N/A         78  41  27  E1      30.02F
#MONUMENT HS    N/A         80  50  35  CALM    29.87F
#MT. VERNON 5SE N/A         76  41  28  E7      29.93F
#WINLOCK        N/A         77  49  37  W6      29.99F
$$

ORZ506-232310-
OCHOCO AND JOHN DAY HIGHLANDS

CITY            SKY/WX      TMP DP  RH  WIND    PRES   REMARKS
#BUCK CREEK DOT N/A         74  45  35  S14     N/A
#HORSE RIDGE DO N/A         73  42  33  SE13    N/A
#KEYES SMT DOT  N/A         72  41  33  SW14    N/A
#PAULINA SCHOOL N/A         74  40  29  S8      29.96F
#PINE MTN OBS   N/A         61  42  50  SE15G28 N/A
#PRAIRIE CITY   N/A         79  39  24  SW2     29.75F
#SENECA 9NW     N/A         74  41  30  SE1     29.81F
$$

ORZ049-232310-
GRANDE RONDE VALLEY

CITY            SKY/WX      TMP DP  RH  WIND    PRES   REMARKS
LA GRANDE       CLOUDY      81  50  34  S14     29.90F
#COVE           N/A         77  53  43  S6      29.85F
#COVE SCHOOL    N/A         77  49  37  SE2     29.91F
#COVE 6NW       N/A         75  56  52  S1      29.85F
#ELGIN 3N       N/A         77  51  40  S7      29.65F
#ELGIN 1E       N/A         77  56  48  CALM    N/A
#IMBLER SCHOOL  N/A         74  57  55  S2      29.87F
#LADD CYN DOT   N/A         78  50  38  S12     N/A
#LA GRANDE ELEM N/A         77  56  48  E2      29.90F
#UNION 1S       N/A         80  52  38  S7      29.71F
$$

ORZ050-232310-
WALLOWA COUNTY

CITY            SKY/WX      TMP DP  RH  WIND    PRES   REMARKS
#ENTERPRISE AP  N/A         77  48  36  SW2     29.92F
#ENTERPRISE HS  N/A         78  52  40  CALM    29.96F
#IMNAHA SCHOOL  N/A         84  43  24  SW13G24 29.76F
#IMNAHA 10S     N/A         82  48  31  SW7     29.91F
#JOSEPH 3N      N/A         76  52  43  CALM    30.00F
#JOSEPH 3W      N/A         78  37  23  E1      29.86F
#LOSTINE        N/A         73  59  62  CALM    29.62F
#MT HOWARD 8000 N/A         58  38  47  W6      30.22S
#PROMISE 1S     N/A         70  59  68  SW1     29.92F
#SHEEP RDG 7000 N/A         61  36  39  CALM    29.82S
#WALLOWA SCHOOL N/A         75  59  58  CALM    30.70F



$$



USA.gov is the U.S. government's official web portal to all federal, state and local government web resources and services.